Regional Weather Roundup
Issued by NWS

Home | Current Version | Previous Version | Text Only | Print | Product List | Glossary On
Versions: 1 2 3 4 5 6 7 8 9 10 11 12 13 14 15 16 17 18 19 20 21 22 23 24 25 26 27 28 29 30 31 32 33 34 35 36 37 38 39 40 41 42 43 44 45 46 47 48 49 50
000
ASUS44 KLUB 060001
RWRTX
WEST TEXAS WEATHER ROUNDUP
NATIONAL WEATHER SERVICE LUBBOCK TX
600 PM CST MON DEC 05 2016

NOTE: "FAIR" INDICATES FEW OR NO CLOUDS BELOW 12,000 FEET WITH NO
SIGNIFICANT WEATHER AND/OR OBSTRUCTIONS TO VISIBILITY.

TXZ004-006>008-010-012-014-016-OKZ002-060100-
TEXAS PANHANDLE/OKLAHOMA PANHANDLE

CITY           SKY/WX    TMP DP  RH WIND       PRES   REMARKS
AMARILLO       CLEAR     51  26  37 S10       29.57R
BORGER         CLEAR     58  32  37 SE12      29.55R
CANADIAN       CLEAR     51  33  50 S9        29.58S
DALHART        CLEAR     52  26  36 E8        29.56R
DUMAS          CLEAR     54  22  28 E9        29.56R
GUYMON         CLEAR     53  27  36 S7        29.55R
HEREFORD       CLOUDY    53  26  34 W10       29.60R
PAMPA          CLEAR     53  32  46 S12       29.58R
PERRYTON       CLEAR     49  34  56 S7        29.56S
$$

TXZ026-029-035-045-048-060100-
SOUTHERN PANHANDLE/SOUTH PLAINS/ROLLING PLAINS

CITY           SKY/WX    TMP DP  RH WIND       PRES   REMARKS
CHILDRESS      CLEAR     51  37  58 S9        29.61S
SEMINOLE       CLEAR     53  35  50 SW8       29.70S
LUBBOCK        PTCLDY    55  37  50 S12       29.63R
PLAINVIEW      CLEAR     52  37  58 S12       29.59S
SNYDER         CLEAR     53  43  67 SW10      29.68S
$$

TXZ052-054-060>062-072-078-127-140-154-169-060100-
PERMIAN BASIN/CONCHO VALLEY/BIG COUNTRY/EDWARDS PLATEAU

CITY           SKY/WX    TMP DP  RH WIND       PRES   REMARKS
ABILENE        CLEAR     46  45  96 SW9       29.69S
BIG SPRING     CLEAR     55  44  65 S10       29.71S
JUNCTION       CLOUDY    50  47  89 SW6       29.76S
MIDLAND        CLEAR     58  36  43 SW9       29.70S
ODESSA         CLEAR     57  36  45 SW10      29.71S
SAN ANGELO     CLEAR     50  47  89 S8        29.72F
WINK           CLEAR     56  37  49 SW6       29.70S
$$

TXZ055-058-074-075-080-082-060100-
FAR WEST/SOUTHWEST MOUNTAINS/TRANS PECOS

CITY           SKY/WX    TMP DP  RH WIND       PRES   REMARKS
ALPINE         CLEAR     54  31  41 W18G28    29.89R
DRYDEN           N/A     59  44  57 SW16G25   29.74F
EL PASO        PTCLDY    61  18  18 NW22G35   29.84R
FORT STOCKTON  CLEAR     55  39  54 W6        29.75R
GUADALUPE PASS CLOUDY    48  30  49 SW33      29.82F
MARFA          CLEAR     51  31  46 W10       29.89R
PECOS          CLEAR     59  33  37 W9        29.74R
$$

TXZ014-016-019-021>030-083-060100
TEXAS TECH WEST TEXAS MESONET/TEXAS PANHANDLE/NORTHERN SOUTH PLAINS

CITY           SKY/WX    TMP DP  RH WIND       PRES   REMARKS
ABERNATHY 5ENE   N/A     52  38  58 S13       29.64S
AMARILLO 9NNE    N/A     50  27  40 S7        29.56R
AMARILLO 7SSE    N/A     54  23  30 S9        29.58R
AMHERST 1NE      N/A     58  23  26 SW10      29.63R
BOOTLEG 11WNW    N/A     56  20  25 W18       29.65R
CANADIAN 6E      N/A     49  32  52 E9        29.59R
CAPROCK CYN SP   N/A     52  41  67 S12       29.61R
CHILDRESS 2NNE   N/A     51  38  61 SE13      29.61S
CLARENDON 2WSW   N/A     53  37  55 S12       29.59S
CLAUDE 12SW      N/A     59  28  31 S9        29.58S
DIMMITT 2NE      N/A     57  24  27 SW13      29.61R
FLOYDADA 2NNE    N/A     51  41  70 S13       29.62S
FRIONA 2NE       N/A     54  22  29 SW10      29.63R
GOODLETT 3W      N/A     49  40  69 SE9       29.62S
HART 3N          N/A     53  30  42 SW8       29.61S
HEREFORD 2NW     N/A     54  22  28 SW10      29.62R
MCLEAN 1E        N/A     48  33  54 SE10      29.59S
MEMPHIS 1NE      N/A     53  39  59 SE7       29.61R
MULESHOE 2SSW    N/A     58  20  22 W12       29.64R
OLTON 6S         N/A     53  29  39 SW9       29.63R
PALO DURO SP     N/A     59  27  29 S5        29.59R
PAMPA 2E         N/A     49  33  54 SE14      29.59S
PLAINVIEW 1S     N/A     53  40  59 S12       29.62R
SILVERTON 7ESE   N/A     50  36  58 S9        29.59R
TULIA 2ENE       N/A     50  34  53 S9        29.60S
TURKEY 2WSW      N/A     54  42  64 S14       29.60S
UMBARGER 3NNE    N/A     53  28  38 SW14      29.59R
$$

TXZ033>036-039>041-045>048-060100
TEXAS TECH WEST TEXAS MESONET/SOUTH PLAINS

CITY           SKY/WX    TMP DP  RH WIND       PRES   REMARKS
AIKEN 3WSW       N/A     52  38  58 S13       29.63S
ANDREWS 2NE      N/A     56  34  43 SW10      29.72S
ANTON 6SSW       N/A     52  36  54 S8        29.64R
BROWNFIELD 2S    N/A     53  38  58 SW10      29.68R
DENVR CTY 7WNW   N/A     53  33  47 SW14      29.70R
GAIL 2ESE        N/A     53  42  65 S9        29.68S
LAMESA 2SE       N/A     52  38  60 SW9       29.69S
LEVELLAND 4S     N/A     55  32  41 SW13      29.66R
LUBBOCK 3WNW     N/A     56  36  46 SW12      29.65R
MORTON 1ENE      N/A     58  26  29 SW9       29.65S
ODONNELL 1N      N/A     52  38  59 SW13      29.68S
PLAINS 3N        N/A     54  33  46 SW12      29.68R
RALLS 1SE        N/A     52  39  61 S14       29.65S
REESE CENTER     N/A     53  38  57 S13       29.65R
SEAGRAVES 1SW    N/A     54  37  52 SW13      29.69R
SEMINOLE 2NNE    N/A     55  34  45 SW10      29.69S
SLATON 2NE       N/A     54  39  57 S15       29.66R
SNYDER 3E        N/A     54  44  69 SW13      29.68S
SUNDOWN 8SW      N/A     56  32  40 SW8       29.67R
TAHOKA 3NNE      N/A     53  37  55 SW14      29.67R
WOLFFORTH 6SSW   N/A     55  38  52 S14       29.66S
$$

TXZ031-032-036>038-042>044-060100-
TEXAS TECH WEST TEXAS MESONET/ROLLING PLAINS

CITY           SKY/WX    TMP DP  RH WIND       PRES   REMARKS
ASPERMONT 3NE    N/A     51  41  69 S7        29.67S
FLUVANNA 3WNW    N/A     53  42  65 S15       29.67F
GRAHAM 5SSW      N/A     55  38  53 S8        29.67S
GUTHRIE 10WSW    N/A     54  38  56 S12       29.63F
HASKELL 1NW      N/A     50  44  79 S7        29.67S
JAYTON 1SSE      N/A     52  40  64 S7        29.65F
KNOX CITY 3NW    N/A     49  43  80 SE9       29.67S
LK A HENRY 1NW   N/A     55  40  58 SW10      29.66S
NORTHFIELD 1S    N/A     54  40  59 S12       29.61S
ODELL 4ENE       N/A     48  43  82 SE10      29.66S
PADUCAH 10SW     N/A     51  40  65 S9        29.62F
POST 1NE         N/A     55  41  60 S9        29.65S
RRING SPRGS 3N   N/A     53  40  61 S12       29.62S
SEYMOUR 3NW      N/A     49  43  81 S6        29.67S
SPUR 1W          N/A     53  40  60 S8        29.64S
WEINERT 2NNE     N/A     49  44  82 S7        29.68R
WHITE RVR 6NE    N/A     54  38  55 S10       29.64S
$$

TXZ052-054-060>062-072-078-127-140-154-169-060100-
TEXAS TECH WEST TEXAS MESONET/PERMIAN BASIN/
CONCHO VALLEY/BIG COUNTRY/EDWARDS PLATEAU

CITY           SKY/WX    TMP DP  RH WIND       PRES   REMARKS
COYANOSA 2N      N/A     60  37  42 W9        29.75R
JUNCTION 1SSW    N/A     50  47  92 SW5       29.79S
MERTZON 3NNE     N/A     50  46  85 S9        29.75S
SAN ANGELO 7NW   N/A     49  45  84 S5        29.73S
STRLNG CT 4WSW   N/A     53  42  67 S3        29.72S
ST LAWRNCE 5SW   N/A     54  42  62 SW8       29.73S
SWEETWATR 11SW   N/A     51  44  76 SW12      29.71R
WALL 1E          N/A     49  45  85 S8        29.75F
$$

TXZ055-058-074-075-080-082-060100-
TEXAS TECH WEST TEXAS MESONET/FAR WEST/SOUTHWEST MOUNTAINS/TRANS PECOS

CITY           SKY/WX    TMP DP  RH WIND       PRES   REMARKS
PRSMN GAP BBNP   N/A     58  43  57 S14       29.84S
GUADLPE MTN NP   N/A     49  24  37 W21G26    29.81F
$$



USA.gov is the U.S. government's official web portal to all federal, state and local government web resources and services.